User: anonymous   Login
Location: Paderno d�Adda
(45.6667°N, 9.4333°E)
Time: 00:50:03
(UTC+00:00)
Language:

Cosmos 1125 Rocket - Orbit

View from above orbital plane
View from above orbital plane
View from above satellite
View from above satellite

Ground track
Ground track

The orbit data is extracted from the following two-line orbital elements,

1 11511U 79078B   20336.51547160  .00000128  00000-0  52078-4 0  9990
2 11511  74.0344 153.0429 0014582  88.0377 272.2446 14.36908339160066
Epoch (UTC): 01 December 2020 12:22:16
Eccentricity: 0.0014582
inclination: 74.0344°
perigee height: 758 km
apogee height: 779 km
right ascension of ascending node: 153.0429°
argument of perigee: 88.0377°
revolutions per day: 14.36908339
mean anomaly at epoch: 272.2446°
orbit number at epoch: 16006

The dashed part of the orbit path shows where the satellite is in the earth's shadow,  

DLR